Location: Asheville, NC
(35.6000°N, 82.5500°W)
Time: 23:41:11

AO-7 - Pass Details

Date: 11 March 2018
Orbit: 1440 x 1459 km, 101.7° (Epoch: 19 March)

Event Time Altitude Azimuth Distance (km) Brightness Sun altitude
Rises 04:20:55 0° 24° (NNE) 4,543 ? -41.1°
Reaches altitude 10° 04:23:56 10° 31° (NNE) 3,559 ? -40.6°
Maximum altitude 04:31:41 42° 100° (E) 1,952 ? -39.2°
Enters shadow 04:34:45 32° 144° (SE) 2,284 ? -38.7°
